AEHF-4 (USA 288)

Last updated on Sat Sep 12 2026 00:03:04 GMT+0000 (Coordinated Universal Time)

1 43651U 18079A 26254.56809476 -.00000291 00000+0 00000+0 0 9999 2 43651 1.4207 357.8832 0068670 0.9535 128.6587 1.00267951 29166
UTC large
Height (km)
Speed (km/s)
/
Latitude / Longitude
Inclination (degrees)
Orbital Period (minutes)
Azimuth
Elevation
Range (km)
Doppler Factor

Next 0 passes for location: London (51.5072 / 0.1276)

No passes found over London.
AEHF-4 (USA 288)